| time (UTC) | temp F | wind direction | speed MPH | gust MPH | rain 1hr in | rain 24hr in | rain mn in | humidity % | barometer mb |
| 20260508023340 | 38 | 158 | 0.0 | 0.0 | 0.00 | 0.10 | 0.00 | 99 | 1011.2 |
| 20260508022336 | 38 | 158 | 0.0 | 0.0 | 0.00 | 0.10 | 0.00 | 99 | 1011.3 |
| 20260508021326 | 39 | 158 | 0.0 | 0.0 | 0.00 | 0.10 | 0.00 | 99 | 1011.4 |
| 20260508020319 | 39 | 158 | 0.0 | 0.0 | 0.00 | 0.10 | 0.00 | 99 | 1011.5 |
| 20260508015312 | 40 | 158 | 0.0 | 0.0 | 0.00 | 0.10 | 0.00 | 99 | 1011.5 |
| 20260508014308 | 41 | 158 | 0.0 | 0.0 | 0.00 | 0.10 | 0.00 | 99 | 1011.5 |
| 20260508013258 | 41 | 158 | 0.0 | 0.0 | 0.00 | 0.10 | 0.00 | 99 | 1011.6 |
| 20260508012251 | 40 | 158 | 0.0 | 0.0 | 0.00 | 0.10 | 0.00 | 99 | 1011.7 |
| 20260508011244 | 41 | 158 | 0.0 | 0.0 | 0.00 | 0.10 | 0.00 | 99 | 1011.9 |
| 20260508010237 | 41 | 158 | 0.0 | 0.0 | 0.00 | 0.10 | 0.00 | 99 | 1012.0 |
| 20260508005230 | 41 | 158 | 0.0 | 0.0 | 0.00 | 0.10 | 0.00 | 99 | 1012.1 |
| 20260508004223 | 41 | 158 | 0.0 | 0.0 | 0.00 | 0.10 | 0.00 | 99 | 1012.2 |
| 20260508003216 | 41 | 158 | 0.0 | 0.0 | 0.00 | 0.10 | 0.00 | 99 | 1012.3 |
| 20260508002209 | 41 | 158 | 0.0 | 0.0 | 0.00 | 0.10 | 0.00 | 99 | 1012.4 |
| 20260508001202 | 41 | 158 | 0.0 | 0.0 | 0.00 | 0.10 | 0.00 | 99 | 1012.5 |
| 20260508000156 | 41 | 158 | 0.0 | 0.0 | 0.00 | 0.10 | 0.00 | 99 | 1012.5 |
| 20260507235147 | 41 | 158 | 0.0 | 0.0 | 0.00 | 0.10 | 0.00 | 99 | 1012.6 |
| 20260507234139 | 41 | 158 | 0.0 | 0.0 | 0.00 | 0.10 | 0.00 | 99 | 1012.4 |
| 20260507233135 | 42 | 158 | 0.0 | 0.0 | 0.00 | 0.10 | 0.00 | 99 | 1012.5 |
| 20260507232125 | 43 | 158 | 0.0 | 0.0 | 0.00 | 0.10 | 0.00 | 99 | 1012.6 |
| 20260507231120 | 43 | 158 | 0.0 | 0.0 | 0.00 | 0.10 | 0.00 | 99 | 1012.6 |
| 20260507230111 | 44 | 158 | 0.0 | 0.0 | 0.00 | 0.10 | 0.00 | 99 | 1012.5 |
| 20260507225104 | 43 | 158 | 0.0 | 0.0 | 0.00 | 0.10 | 0.00 | 99 | 1012.7 |
| 20260507224101 | 43 | 158 | 0.0 | 0.0 | 0.00 | 0.10 | 0.00 | 99 | 1012.6 |
| 20260507223050 | 44 | 158 | 0.0 | 0.0 | 0.00 | 0.10 | 0.00 | 99 | 1012.4 |
| 20260507222043 | 44 | 158 | 0.0 | 0.0 | 0.00 | 0.10 | 0.00 | 99 | 1012.4 |
| 20260507221037 | 44 | 158 | 0.0 | 0.0 | 0.00 | 0.10 | 0.00 | 99 | 1012.3 |
| 20260507220030 | 44 | 158 | 0.0 | 0.0 | 0.00 | 0.10 | 0.00 | 99 | 1012.5 |
| 20260507215023 | 44 | 158 | 0.0 | 0.0 | 0.00 | 0.10 | 0.10 | 99 | 1012.4 |
| 20260507214016 | 44 | 158 | 0.0 | 0.0 | 0.00 | 0.10 | 0.10 | 99 | 1012.4 |
| 20260507213009 | 44 | 158 | 0.0 | 0.0 | 0.00 | 0.10 | 0.10 | 99 | 1012.4 |
| 20260507212002 | 45 | 158 | 0.0 | 0.0 | 0.00 | 0.10 | 0.10 | 99 | 1012.3 |
| 20260507210955 | 45 | 158 | 0.0 | 0.0 | 0.00 | 0.10 | 0.10 | 99 | 1012.3 |
| 20260507205948 | 45 | 158 | 0.0 | 0.0 | 0.00 | 0.10 | 0.10 | 99 | 1012.3 |
| 20260507204941 | 45 | 158 | 0.0 | 0.0 | 0.00 | 0.10 | 0.10 | 99 | 1012.0 |
| 20260507203935 | 46 | 158 | 0.0 | 0.0 | 0.00 | 0.10 | 0.10 | 99 | 1012.0 |
| 20260507202928 | 46 | 158 | 0.0 | 0.0 | 0.00 | 0.10 | 0.10 | 99 | 1011.7 |
| 20260507201921 | 47 | 158 | 0.0 | 0.0 | 0.00 | 0.10 | 0.10 | 99 | 1011.5 |
| 20260507200915 | 47 | 158 | 0.0 | 3.0 | 0.00 | 0.10 | 0.10 | 99 | 1011.4 |
| 20260507195907 | 47 | 158 | 0.0 | 3.0 | 0.00 | 0.10 | 0.10 | 99 | 1011.3 |
| 20260507194859 | 48 | 158 | 0.0 | 2.0 | 0.00 | 0.10 | 0.10 | 99 | 1011.1 |
| 20260507193855 | 48 | 158 | 0.0 | 0.0 | 0.00 | 0.10 | 0.10 | 97 | 1010.9 |
| 20260507192845 | 48 | 158 | 0.0 | 3.0 | 0.00 | 0.10 | 0.10 | 97 | 1010.8 |
| 20260507191839 | 49 | 158 | 0.0 | 3.0 | 0.00 | 0.10 | 0.10 | 89 | 1010.9 |
| 20260507190835 | 49 | 225 | 0.0 | 0.0 | 0.00 | 0.10 | 0.10 | 86 | 1010.6 |
| 20260507185825 | 50 | 225 | 0.0 | 0.0 | 0.00 | 0.10 | 0.10 | 85 | 1010.4 |
| 20260507184818 | 50 | 225 | 0.0 | 0.0 | 0.00 | 0.10 | 0.10 | 82 | 1010.3 |
| 20260507183815 | 51 | 225 | 0.0 | 0.0 | 0.00 | 0.10 | 0.10 | 77 | 1010.4 |
| 20260507182803 | 52 | 225 | 0.0 | 0.0 | 0.00 | 0.10 | 0.10 | 77 | 1010.4 |
| 20260507181756 | 53 | 248 | 0.0 | 0.0 | 0.00 | 0.10 | 0.10 | 77 | 1010.3 |
| 20260507180749 | 53 | 248 | 0.0 | 0.0 | 0.00 | 0.10 | 0.10 | 77 | 1010.4 |
| 20260507175742 | 53 | 248 | 0.0 | 0.0 | 0.00 | 0.10 | 0.10 | 77 | 1010.3 |
| 20260507174735 | 53 | 248 | 0.0 | 0.0 | 0.00 | 0.10 | 0.10 | 76 | 1010.3 |
| 20260507173728 | 52 | 248 | 0.0 | 0.0 | 0.00 | 0.10 | 0.10 | 72 | 1010.2 |
| 20260507172721 | 52 | 248 | 0.0 | 0.0 | 0.00 | 0.10 | 0.10 | 72 | 1010.1 |
| 20260507171715 | 53 | 248 | 0.0 | 0.0 | 0.00 | 0.10 | 0.10 | 75 | 1010.1 |
| 20260507170708 | 53 | 270 | 0.0 | 0.0 | 0.00 | 0.10 | 0.10 | 70 | 1010.2 |
| 20260507165701 | 54 | 270 | 0.0 | 0.0 | 0.00 | 0.10 | 0.10 | 69 | 1010.1 |
| 20260507164654 | 54 | 270 | 0.0 | 0.0 | 0.00 | 0.10 | 0.10 | 72 | 1010.0 |
| 20260507163647 | 54 | 270 | 0.0 | 0.0 | 0.00 | 0.10 | 0.10 | 79 | 1010.0 |
| 20260507162640 | 56 | 270 | 0.0 | 0.0 | 0.00 | 0.10 | 0.10 | 88 | 1010.0 |
| 20260507161634 | 54 | 270 | 0.0 | 0.0 | 0.00 | 0.10 | 0.10 | 89 | 1010.2 |
| 20260507160625 | 52 | 270 | 0.0 | 0.0 | 0.00 | 0.10 | 0.10 | 88 | 1010.3 |
| 20260507155618 | 52 | 270 | 0.0 | 0.0 | 0.00 | 0.10 | 0.10 | 86 | 1010.3 |
| 20260507154614 | 51 | 270 | 0.0 | 0.0 | 0.00 | 0.10 | 0.10 | 94 | 1010.4 |
| 20260507153605 | 51 | 270 | 0.0 | 0.0 | 0.00 | 0.10 | 0.10 | 97 | 1010.6 |
| 20260507152558 | 51 | 270 | 0.0 | 0.0 | 0.06 | 0.10 | 0.10 | 99 | 1010.6 |
| 20260507151549 | 51 | 270 | 0.0 | 0.0 | 0.06 | 0.10 | 0.10 | 99 | 1010.6 |
| 20260507150542 | 50 | 270 | 0.0 | 0.0 | 0.06 | 0.10 | 0.10 | 99 | 1010.4 |
| 20260507145535 | 49 | 270 | 0.0 | 0.0 | 0.06 | 0.10 | 0.10 | 99 | 1010.5 |
| 20260507144534 | 49 | 270 | 0.0 | 0.0 | 0.06 | 0.10 | 0.10 | 97 | 1010.8 |
| 20260507143521 | 49 | 270 | 0.0 | 0.0 | 0.06 | 0.10 | 0.10 | 89 | 1011.0 |
| 20260507142627 | 49 | 248 | 0.0 | 9.0 | 0.04 | 0.08 | 0.08 | 80 | 1011.1 |
| 20260507141720 | 51 | 270 | 0.0 | 2.0 | 0.00 | 0.04 | 0.04 | 73 | 1010.8 |
| 20260507140714 | 51 | 338 | 1.0 | 4.0 | 0.00 | 0.04 | 0.04 | 69 | 1010.3 |
| 20260507135707 | 53 | 338 | 0.0 | 3.0 | 0.00 | 0.04 | 0.04 | 67 | 1010.2 |
| 20260507134700 | 53 | 338 | 0.0 | 4.0 | 0.00 | 0.04 | 0.04 | 64 | 1010.2 |
| 20260507133654 | 53 | 338 | 0.0 | 3.0 | 0.00 | 0.04 | 0.04 | 60 | 1010.3 |
| 20260507132647 | 54 | 315 | 0.0 | 5.0 | 0.00 | 0.04 | 0.04 | 58 | 1010.2 |
| 20260507131641 | 56 | 338 | 0.0 | 2.0 | 0.00 | 0.04 | 0.04 | 57 | 1010.2 |
| 20260507130634 | 57 | 338 | 0.0 | 7.0 | 0.00 | 0.04 | 0.04 | 55 | 1010.3 |
| 20260507125628 | 57 | 338 | 0.0 | 4.0 | 0.00 | 0.04 | 0.04 | 51 | 1010.1 |
| 20260507124623 | 59 | 293 | 0.0 | 4.0 | 0.00 | 0.04 | 0.04 | 46 | 1010.1 |
| 20260507123617 | 62 | 203 | 0.0 | 2.0 | 0.00 | 0.04 | 0.04 | 44 | 1010.0 |
| 20260507122614 | 68 | 203 | 1.0 | 6.0 | 0.00 | 0.04 | 0.04 | 46 | 1010.0 |
| 20260507121605 | 68 | 180 | 2.0 | 9.0 | 0.00 | 0.04 | 0.04 | 46 | 1010.0 |
| 20260507120559 | 68 | 135 | 0.0 | 0.0 | 0.00 | 0.04 | 0.04 | 50 | 1010.1 |
| 20260507115554 | 64 | 113 | 0.0 | 3.0 | 0.00 | 0.04 | 0.04 | 52 | 1010.5 |
| 20260507114542 | 64 | 135 | 0.0 | 2.0 | 0.00 | 0.04 | 0.04 | 52 | 1010.6 |
| 20260507113536 | 58 | 158 | 0.0 | 5.0 | 0.00 | 0.04 | 0.04 | 55 | 1010.7 |
| 20260507112529 | 59 | 158 | 4.0 | 8.0 | 0.00 | 0.04 | 0.04 | 57 | 1011.0 |
| 20260507111522 | 60 | 158 | 1.0 | 8.0 | 0.00 | 0.04 | 0.04 | 54 | 1011.2 |
| 20260507110516 | 60 | 158 | 1.0 | 6.0 | 0.00 | 0.04 | 0.04 | 55 | 1011.1 |
| 20260507105509 | 60 | 180 | 3.0 | 11.0 | 0.00 | 0.04 | 0.04 | 58 | 1011.1 |
| 20260507104502 | 60 | 180 | 2.0 | 9.0 | 0.00 | 0.04 | 0.04 | 62 | 1011.2 |
| 20260507103454 | 61 | 180 | 4.0 | 11.0 | 0.00 | 0.04 | 0.04 | 66 | 1011.2 |
| 20260507102447 | 57 | 158 | 3.0 | 8.0 | 0.00 | 0.04 | 0.04 | 63 | 1011.3 |
| 20260507101440 | 59 | 158 | 0.0 | 0.0 | 0.04 | 0.04 | 0.04 | 68 | 1011.2 |
| 20260507100434 | 58 | 180 | 0.0 | 2.0 | 0.04 | 0.04 | 0.04 | 75 | 1011.4 |
| 20260507095425 | 57 | 158 | 2.0 | 5.0 | 0.04 | 0.04 | 0.04 | 76 | 1011.5 |
| 20260507094417 | 57 | 180 | 1.0 | 5.0 | 0.04 | 0.04 | 0.04 | 87 | 1011.3 |
| 20260507093409 | 55 | 135 | 2.0 | 8.0 | 0.04 | 0.04 | 0.04 | 87 | 1011.1 |
| 20260507092402 | 49 | 45 | 0.0 | 0.0 | 0.04 | 0.04 | 0.04 | 81 | 1010.7 |
| 20260507091502 | 49 | 135 | 0.0 | 0.0 | 0.02 | 0.02 | 0.02 | 73 | 1011.4 |
| 20260507090601 | 50 | 158 | 0.0 | 9.0 | 0.00 | 0.00 | 0.00 | 69 | 1011.6 |
| 20260507085555 | 51 | 180 | 0.0 | 4.0 | 0.00 | 0.00 | 0.00 | 68 | 1011.5 |
| 20260507084548 | 54 | 158 | 1.0 | 4.0 | 0.00 | 0.00 | 0.00 | 69 | 1011.2 |
| 20260507083541 | 55 | 158 | 0.0 | 5.0 | 0.00 | 0.00 | 0.00 | 77 | 1011.1 |
| 20260507082534 | 55 | 135 | 0.0 | 2.0 | 0.00 | 0.00 | 0.00 | 76 | 1011.0 |
| 20260507081526 | 52 | 68 | 0.0 | 0.0 | 0.00 | 0.00 | 0.00 | 81 | 1011.1 |
| 20260507080518 | 51 | 68 | 0.0 | 0.0 | 0.00 | 0.00 | 0.00 | 80 | 1011.1 |
| 20260507075514 | 50 | 68 | 0.0 | 0.0 | 0.00 | 0.00 | 0.00 | 82 | 1011.2 |
| 20260507074504 | 49 | 68 | 0.0 | 0.0 | 0.00 | 0.00 | 0.00 | 87 | 1011.1 |
| 20260507073457 | 48 | 68 | 0.0 | 0.0 | 0.00 | 0.00 | 0.00 | 87 | 1011.2 |
| 20260507072450 | 47 | 68 | 0.0 | 0.0 | 0.00 | 0.00 | 0.00 | 91 | 1011.2 |
| 20260507071442 | 46 | 68 | 0.0 | 0.0 | 0.00 | 0.00 | 0.00 | 93 | 1011.3 |
| 20260507070435 | 45 | 68 | 0.0 | 0.0 | 0.00 | 0.00 | 0.00 | 99 | 1011.4 |
| 20260507065429 | 45 | 68 | 0.0 | 0.0 | 0.00 | 0.00 | 0.00 | 97 | 1011.5 |
| 20260507064420 | 43 | 68 | 0.0 | 0.0 | 0.00 | 0.00 | 0.00 | 98 | 1011.4 |
| 20260507063414 | 43 | 68 | 0.0 | 0.0 | 0.00 | 0.00 | 0.00 | 99 | 1011.3 |
| 20260507062406 | 43 | 68 | 0.0 | 0.0 | 0.00 | 0.00 | 0.00 | 99 | 1011.3 |
| 20260507061358 | 43 | 68 | 0.0 | 0.0 | 0.00 | 0.00 | 0.00 | 99 | 1011.5 |
| 20260507060354 | 43 | 68 | 0.0 | 0.0 | 0.00 | 0.00 | 0.00 | 99 | 1011.5 |
| 20260507055344 | 42 | 68 | 0.0 | 0.0 | 0.00 | 0.00 | 0.00 | 99 | 1011.4 |
| 20260507054337 | 41 | 68 | 0.0 | 0.0 | 0.00 | 0.00 | 0.00 | 99 | 1011.4 |
| 20260507053334 | 40 | 68 | 0.0 | 0.0 | 0.00 | 0.00 | 0.00 | 99 | 1011.4 |
| 20260507052323 | 40 | 68 | 0.0 | 0.0 | 0.00 | 0.00 | 0.00 | 99 | 1011.4 |
| 20260507051316 | 40 | 68 | 0.0 | 0.0 | 0.00 | 0.00 | 0.00 | 99 | 1011.4 |
| 20260507050309 | 39 | 68 | 0.0 | 0.0 | 0.00 | 0.00 | 0.00 | 99 | 1011.4 |
| 20260507045306 | 39 | 68 | 0.0 | 0.0 | 0.00 | 0.00 | 0.00 | 99 | 1011.4 |
| 20260507044255 | 39 | 68 | 0.0 | 0.0 | 0.00 | 0.00 | 0.00 | 99 | 1011.4 |
| 20260507043257 | 39 | 68 | 0.0 | 0.0 | 0.00 | 0.00 | 0.00 | 99 | 1011.4 |
| 20260507042242 | 39 | 68 | 0.0 | 0.0 | 0.00 | 0.00 | 0.00 | 99 | 1011.4 |
| 20260507041235 | 39 | 68 | 0.0 | 0.0 | 0.00 | 0.00 | 0.00 | 99 | 1011.4 |
| 20260507040228 | 39 | 68 | 0.0 | 0.0 | 0.00 | 0.00 | 0.00 | 99 | 1011.5 |
| 20260507035222 | 39 | 68 | 0.0 | 0.0 | 0.00 | 0.00 | 0.00 | 99 | 1011.5 |
| 20260507034217 | 38 | 68 | 0.0 | 0.0 | 0.00 | 0.00 | 0.00 | 99 | 1011.6 |
| 20260507033207 | 38 | 68 | 0.0 | 0.0 | 0.00 | 0.00 | 0.00 | 99 | 1011.6 |
| 20260507032200 | 39 | 68 | 0.0 | 0.0 | 0.00 | 0.00 | 0.00 | 99 | 1011.5 |
| 20260507031154 | 38 | 68 | 0.0 | 0.0 | 0.00 | 0.00 | 0.00 | 99 | 1011.6 |
| 20260507030146 | 39 | 68 | 0.0 | 0.0 | 0.00 | 0.00 | 0.00 | 99 | 1011.6 |
| 20260507025139 | 38 | 68 | 0.0 | 0.0 | 0.00 | 0.00 | 0.00 | 99 | 1011.6 |
| 20260507024134 | 39 | 68 | 0.0 | 0.0 | 0.00 | 0.00 | 0.00 | 99 | 1011.6 |